[[{"header":{"parameterUnit":"m.s-1","parameterCategory":1,"la1":30.2991,"la2":30.254,"lo1":-89.0895,"lo2":-89.0444,"dy":0.0017,"dx":0.0017,"nx":28,"ny":28,"refTime":"2023-10-28T21:00:00:Z","depth":0,"parameterNumber":2,"parameterNumberName":"U-component_of_WINDS"},"data":[0,0,0,0,0,0,0,0,0,0,0,0,0,0,0,0,0,0,0,0,0,0,0,0,0,0,0,0,0,0,0,0,0,0,0,0,0,0,0,0,0,0,0,0,0,0,0,0,0,0,0,0,0,0,0,0,0,0,-1.2013,-1.2015,0,-1.2203,-1.2205,-1.2207,-1.2238,-1.2237,-1.2235,-1.2234,-1.2431,-1.2437,-1.2444,0,0,0,0,0,0,0,0,0,0,0,0,0,-1.1682,-1.1688,-1.2013,-1.2016,-1.2018,-1.2203,-1.2205,-1.2208,-1.2239,-1.2237,-1.2235,-1.2233,-1.2429,-1.2437,-1.2445,0,0,0,0,0,0,0,0,0,0,0,0,0,-1.1844,-1.169,-1.2013,-1.2056,-1.2061,-1.2202,-1.2205,-1.2208,-1.2239,-1.2237,-1.2234,-1.2232,-1.2426,-1.2436,-1.2446,-1.2558,0,0,-1.2477,-1.2481,0,0,0,0,0,0,0,0,-1.1835,-1.1856,-1.2047,-1.2053,-1.206,-1.2194,-1.2161,-1.2326,-1.224,-1.2172,-1.2234,-1.2231,-1.2354,-1.237,-1.2411,-1.2567,-1.2576,-1.2478,-1.2484,-1.2488,-1.2491,0,0,0,0,0,0,0,-1.1823,-1.1848,-1.2088,-1.205,-1.2057,-1.2067,-1.2087,-1.2192,-1.2275,-1.2178,-1.218,-1.2202,-1.2357,-1.2401,-1.2416,-1.2579,-1.2477,-1.2487,-1.2493,-1.2497,-1.2837,-1.284,0,0,0,0,0,0,-1.1804,-1.1839,-1.2082,-1.2094,-1.1939,-1.2074,-1.2097,-1.2154,-1.2274,-1.2289,-1.2204,-1.2203,-1.2385,-1.2404,-1.2423,-1.2563,-1.2488,-1.2498,-1.2504,-1.2834,-1.2838,-1.2841,0,0,0,0,0,0,-1.1797,-1.1825,-1.2075,-1.1967,-1.2,-1.2083,-1.2146,-1.2159,-1.2203,-1.2294,-1.2309,-1.2234,-1.2384,-1.2409,-1.2524,-1.257,-1.2502,-1.2512,-1.2831,-1.2835,-1.2839,-1.2843,0,0,0,0,0,0,-1.1787,-1.1823,-1.1865,-1.1968,-1.2005,-1.2172,-1.2149,-1.2164,-1.222,-1.222,-1.2325,-1.2341,-1.2384,-1.2509,-1.2534,-1.2583,-1.252,-1.2827,-1.2833,-1.2838,-1.284,-1.2847,-1.2854,0,0,0,0,0,-1.1775,-1.186,-1.1867,-1.1897,-1.206,-1.2174,-1.2196,-1.2243,-1.2223,-1.2268,-1.2326,-1.2337,-1.2561,-1.252,-1.2549,-1.2602,-1.2824,-1.2831,-1.2837,-1.2836,-1.2846,-1.2854,0,0,0,0,0,0,-1.1762,-1.1874,-1.1884,-1.2003,-1.2079,-1.2179,-1.2237,-1.2252,-1.2335,-1.2332,-1.2388,-1.2412,-1.2524,-1.2575,-1.2528,-1.2717,-1.2691,-1.2704,-1.268,-1.269,-1.2697,-1.2684,-1.2528,0,0,0,0,0,-1.1772,-1.1854,-1.1948,-1.2045,-1.2082,-1.2153,-1.2204,-1.2234,-1.2315,-1.2348,-1.2414,-1.2493,-1.2582,-1.2639,-1.2725,-1.2846,-1.2871,-1.2897,-1.2904,-1.291,-1.2921,-1.299,-1.3003,-1.2862,-1.2862,-1.2862,0,0,-1.1796,-1.1867,-1.1916,-1.2044,-1.2106,-1.2191,-1.218,-1.227,-1.2334,-1.2362,-1.2475,-1.2526,-1.2618,-1.2737,-1.2793,-1.2783,-1.2964,-1.2918,-1.2922,-1.293,-1.2998,-1.3011,-1.3023,-1.2867,-1.2866,-1.2865,0,0,-1.1882,-1.1944,-1.2032,-1.2094,-1.2187,-1.2234,-1.2254,-1.2353,-1.2388,-1.2502,-1.2524,-1.2602,-1.2752,-1.2817,-1.287,-1.298,-1.2994,-1.3007,-1.3045,-1.3112,-1.3123,-1.3133,-1.3174,-1.3187,-1.3017,-1.3017,-1.3017,0,-1.19,-1.2028,-1.2075,-1.2165,-1.2221,-1.2249,-1.2339,-1.2397,-1.2514,-1.2553,-1.2539,-1.2729,-1.2793,-1.2928,-1.2954,-1.2996,-1.3023,-1.2996,-1.3117,-1.3128,-1.3138,-1.3177,-1.3192,-1.3018,-1.3018,-1.3018,-1.3017,0,-1.2046,-1.2134,-1.2194,-1.2305,-1.2368,-1.2458,-1.2519,-1.2578,-1.2602,-1.265,-1.2766,-1.2843,-1.2946,-1.298,-1.3005,-1.3119,-1.3109,-1.3106,-1.3081,-1.3152,-1.319,-1.3205,-1.3019,-1.3019,-1.3019,-1.3018,0,0,-1.213,-1.2266,-1.2287,-1.2338,-1.2443,-1.2513,-1.2604,-1.2703,-1.2753,-1.2833,-1.2911,-1.3037,-1.3035,-1.3094,-1.3127,-1.3185,-1.3269,-1.3175,-1.3178,-1.319,-1.34,-1.3403,-1.342,-1.3278,-1.3281,-1.3283,-1.3393,0,-1.2229,-1.2391,-1.2436,-1.2574,-1.2657,-1.2684,-1.2763,-1.2837,-1.2884,-1.2962,-1.3015,-1.3104,-1.3093,-1.3129,-1.3188,-1.3246,-1.3312,-1.3239,-1.3353,-1.3356,-1.333,-1.344,-1.3443,-1.3543,-1.3408,-1.3411,-1.3412,0,-1.2368,-1.2449,-1.2594,-1.2689,-1.2726,-1.2796,-1.2891,-1.2965,-1.3049,-1.3079,-1.3146,-1.3173,-1.327,-1.3238,-1.3373,-1.3322,-1.3371,-1.3407,-1.3412,-1.3426,-1.3389,-1.3457,-1.3576,-1.3591,-1.3436,-1.3434,-1.3432,0,-1.2415,-1.2562,-1.2668,-1.2711,-1.2824,-1.2873,-1.2922,-1.3004,-1.3061,-1.3144,-1.3182,-1.3275,-1.3327,-1.3399,-1.3451,-1.3423,-1.3581,-1.3554,-1.361,-1.3609,-1.3644,-1.3641,-1.3773,-1.3673,-1.3673,-1.3673,-1.3672,0,-1.2523,-1.2611,-1.2691,-1.2756,-1.2856,-1.2907,-1.3005,-1.3056,-1.3128,-1.3205,-1.3234,-1.3306,-1.3369,-1.3449,-1.3491,-1.3597,-1.3619,-1.3647,-1.3658,-1.3646,-1.3642,-1.368,-1.3675,-1.3677,-1.3676,-1.3675,-1.3674,0,-1.2594,-1.2651,-1.2768,-1.2865,-1.2892,-1.2961,-1.3045,-1.311,-1.3157,-1.3254,-1.328,-1.3355,-1.3451,-1.3509,-1.3631,-1.3659,-1.3776,-1.3783,-1.3747,-1.3752,-1.3806,-1.38,-1.3967,-1.3992,-1.3874,-1.3875,-1.3876,0,-1.2659,-1.2728,-1.2831,-1.2884,-1.2934,-1.3019,-1.3077,-1.313,-1.3189,-1.3291,-1.3344,-1.3441,-1.3522,-1.3674,-1.374,-1.3834,-1.3844,-1.3896,-1.3858,-1.3844,-1.3846,-1.3842,-1.385,-1.3903,-1.3904,-1.3905,-1.3905,0,-1.2769,-1.2794,-1.2876,-1.2968,-1.3036,-1.3112,-1.3187,-1.3229,-1.3295,-1.336,-1.3458,-1.352,-1.3644,-1.3741,-1.384,-1.3892,-1.3911,-1.3916,-1.3935,-1.3924,-1.3901,-1.3915,-1.3766,-1.3913,-1.3912,-1.3911,-1.3911,-1.3911,-1.2841,-1.2903,-1.2986,-1.3077,-1.3138,-1.3208,-1.3274,-1.3329,-1.3412,-1.3516,-1.3542,-1.3645,-1.3729,-1.3863,-1.3917,-1.3999,-1.3992,-1.4018,-1.4025,-1.4031,-1.4032,-1.3886,-1.4017,-1.4017,-1.4017,-1.4017,-1.4017,0,-1.2954,-1.3008,-1.3091,-1.3195,-1.3266,-1.3275,-1.3359,-1.3418,-1.3508,-1.3584,-1.3662,-1.3775,-1.3869,-1.3942,-1.4039,-1.4091,-1.4102,-1.4115,-1.4112,-1.4124,-1.4033,-1.4008,-1.4104,-1.4104,-1.4104,-1.4104,-1.4104,-1.4104,-1.3021,-1.3127,-1.3161,-1.3299,-1.3353,-1.3454,-1.3501,-1.3565,-1.3626,-1.375,-1.3828,-1.3875,-1.395,-1.4052,-1.4139,-1.4158,-1.4193,-1.4205,-1.4226,-1.414,-1.413,-1.4121,-1.4098,-1.4212,-1.4212,-1.431,-1.4311,-1.4312]},{"header":{"parameterUnit":"m.s-1","parameterCategory":1,"la1":30.2991,"la2":30.254,"lo1":-89.0895,"lo2":-89.0444,"dy":0.0017,"dx":0.0017,"nx":28,"ny":28,"refTime":"2023-10-28T21:00:00:Z","depth":0,"parameterNumber":3,"parameterNumberName":"V-component_of_WINDS"},"data":[0,0,0,0,0,0,0,0,0,0,0,0,0,0,0,0,0,0,0,0,0,0,0,0,0,0,0,0,0,0,0,0,0,0,0,0,0,0,0,0,0,0,0,0,0,0,0,0,0,0,0,0,0,0,0,0,0,0,-0.0155,-0.0155,0,-0.009,-0.0089,-0.0088,-0.0033,-0.0033,-0.0032,-0.0031,0.0033,0.0034,0.0035,0,0,0,0,0,0,0,0,0,0,0,0,0,-0.0236,-0.0234,-0.0155,-0.0155,-0.0154,-0.009,-0.0089,-0.0088,-0.0033,-0.0032,-0.0032,-0.0031,0.0033,0.0034,0.0035,0,0,0,0,0,0,0,0,0,0,0,0,0,-0.0189,-0.0234,-0.0156,-0.0119,-0.0115,-0.009,-0.0089,-0.0088,-0.0033,-0.0032,-0.0032,-0.0031,0.0032,0.0034,0.0036,0.0028,0,0,0.0041,0.0042,0,0,0,0,0,0,0,0,-0.0191,-0.0186,-0.0125,-0.0121,-0.0117,-0.0069,-0.0093,-0.0049,-0.0034,-0.0064,-0.0031,-0.003,-0.0002,0.0003,0.0013,0.0031,0.0034,0.0041,0.0042,0.0043,0.0043,0,0,0,0,0,0,0,-0.0195,-0.0188,-0.013,-0.0124,-0.0119,-0.0106,-0.0098,-0.0085,-0.0039,-0.0062,-0.0057,-0.005,0.0001,0.0011,0.0015,0.0035,0.0041,0.0043,0.0044,0.0044,0.005,0.0049,0,0,0,0,0,0,-0.0203,-0.0191,-0.0132,-0.0128,-0.0152,-0.0105,-0.0097,-0.0085,-0.0039,-0.0031,-0.0051,-0.0048,0.0008,0.0013,0.0018,0.0012,0.0043,0.0045,0.0046,0.0051,0.005,0.0049,0,0,0,0,0,0,-0.0205,-0.0198,-0.0134,-0.0158,-0.0149,-0.0105,-0.0092,-0.0084,-0.0073,-0.0031,-0.0023,-0.0049,0.0009,0.0015,0.0025,0.0015,0.0045,0.0047,0.0052,0.005,0.0049,-0.0,0,0,0,0,0,0,-0.0208,-0.0199,-0.0201,-0.0159,-0.0148,-0.0127,-0.0093,-0.0084,-0.007,-0.0066,-0.0026,-0.0019,0.001,0.0022,0.0027,0.0018,0.0048,0.0053,0.0051,0.005,0.0002,-0.0003,-0.0008,0,0,0,0,0,-0.0211,-0.0218,-0.0202,-0.0195,-0.0149,-0.0128,-0.0122,-0.0087,-0.0071,-0.0073,-0.0046,-0.002,0.0015,0.0023,0.0029,0.002,0.0054,0.0052,0.005,0.0005,-0.0002,-0.0008,0,0,0,0,0,0,-0.0264,-0.0212,-0.0193,-0.0187,-0.0162,-0.0118,-0.012,-0.0096,-0.0075,-0.0072,-0.0031,-0.0022,-0.0017,0.0003,0.001,0.0015,0.0038,0.0037,0.0002,-0.0004,-0.001,-0.0015,0.005,0,0,0,0,0,-0.0275,-0.0262,-0.0217,-0.0216,-0.0204,-0.0164,-0.0154,-0.0129,-0.0102,-0.0092,-0.0064,-0.0039,-0.0022,-0.0012,0.0006,0.0006,0.0015,0.0002,-0.0003,-0.0007,-0.0009,-0.0008,-0.0013,0.0042,0.0042,0.0042,0,0,-0.0298,-0.0268,-0.0262,-0.0226,-0.0204,-0.0191,-0.0156,-0.0144,-0.0134,-0.009,-0.0079,-0.0057,-0.0027,-0.0022,-0.0018,-0.0006,-0.0022,-0.001,-0.0014,-0.0013,-0.001,-0.0016,-0.002,0.0041,0.0041,0.0041,0,0,-0.0334,-0.0309,-0.0306,-0.0284,-0.025,-0.0224,-0.0223,-0.0183,-0.0167,-0.0154,-0.0121,-0.0109,-0.0081,-0.0061,-0.0047,-0.0075,-0.005,-0.007,-0.0098,-0.0097,-0.0101,-0.0105,-0.0115,-0.0119,-0.0072,-0.0072,-0.0072,0,-0.0367,-0.0345,-0.0307,-0.0297,-0.0282,-0.0241,-0.0237,-0.0218,-0.0181,-0.0173,-0.0159,-0.0122,-0.0099,-0.0089,-0.0096,-0.0086,-0.0084,-0.0075,-0.0104,-0.0107,-0.011,-0.0119,-0.0123,-0.0074,-0.0074,-0.0074,-0.0073,0,-0.0388,-0.0374,-0.0375,-0.0339,-0.0325,-0.0318,-0.028,-0.027,-0.0246,-0.0222,-0.021,-0.018,-0.0156,-0.0151,-0.0129,-0.0138,-0.0131,-0.0111,-0.0087,-0.0118,-0.0126,-0.013,-0.0078,-0.0077,-0.0076,-0.0076,0,0,-0.0455,-0.0398,-0.04,-0.0383,-0.0343,-0.0332,-0.0323,-0.0299,-0.0291,-0.0267,-0.0259,-0.0236,-0.0217,-0.0202,-0.0176,-0.0176,-0.02,-0.0155,-0.0154,-0.0165,-0.0209,-0.0225,-0.0229,-0.0183,-0.0184,-0.0184,-0.0211,0,-0.0485,-0.0467,-0.0432,-0.0425,-0.0412,-0.0372,-0.0365,-0.034,-0.0317,-0.0303,-0.0277,-0.0261,-0.0237,-0.0227,-0.0224,-0.0198,-0.0208,-0.0195,-0.0177,-0.0177,-0.0186,-0.0234,-0.025,-0.0278,-0.0214,-0.0215,-0.0215,0,-0.0517,-0.0494,-0.0486,-0.0447,-0.044,-0.0434,-0.0409,-0.0395,-0.0366,-0.0349,-0.0332,-0.0304,-0.0294,-0.0271,-0.0257,-0.0249,-0.0239,-0.0225,-0.0225,-0.0222,-0.0198,-0.0233,-0.0285,-0.029,-0.022,-0.0219,-0.0219,0,-0.0568,-0.0535,-0.0526,-0.0513,-0.0467,-0.0464,-0.0445,-0.0415,-0.0402,-0.038,-0.0371,-0.0349,-0.0337,-0.032,-0.0287,-0.0274,-0.0277,-0.0251,-0.0263,-0.0264,-0.0266,-0.0267,-0.0318,-0.0259,-0.0259,-0.0259,-0.0259,0,-0.0604,-0.0601,-0.0548,-0.0543,-0.0538,-0.0499,-0.0496,-0.0473,-0.0446,-0.0436,-0.04,-0.0392,-0.0348,-0.0335,-0.0309,-0.0301,-0.0296,-0.0283,-0.0276,-0.0286,-0.0288,-0.028,-0.0277,-0.026,-0.026,-0.026,-0.0259,0,-0.0661,-0.0625,-0.0613,-0.057,-0.0559,-0.0558,-0.0521,-0.0515,-0.0489,-0.0477,-0.0471,-0.0431,-0.0413,-0.0378,-0.0351,-0.0334,-0.0332,-0.032,-0.0342,-0.0338,-0.0352,-0.0351,-0.0401,-0.0405,-0.0343,-0.0344,-0.0344,0,-0.0687,-0.0683,-0.064,-0.063,-0.0612,-0.0597,-0.0584,-0.0545,-0.0532,-0.0499,-0.0497,-0.0476,-0.0457,-0.0431,-0.04,-0.0379,-0.0366,-0.0385,-0.0363,-0.0374,-0.0367,-0.0368,-0.0368,-0.039,-0.0391,-0.0392,-0.0393,0,-0.0737,-0.072,-0.0702,-0.0677,-0.0662,-0.0641,-0.0619,-0.0613,-0.0569,-0.0557,-0.0538,-0.0523,-0.0495,-0.0475,-0.045,-0.0431,-0.0405,-0.04,-0.0401,-0.0412,-0.0425,-0.0419,-0.0356,-0.0399,-0.0398,-0.0398,-0.0397,-0.0397,-0.078,-0.0775,-0.0743,-0.0724,-0.0703,-0.0683,-0.0674,-0.0647,-0.063,-0.0604,-0.0582,-0.0565,-0.0536,-0.0499,-0.0481,-0.0468,-0.0455,-0.0458,-0.0458,-0.046,-0.0464,-0.0427,-0.0463,-0.0463,-0.0463,-0.0462,-0.0462,0,-0.0829,-0.0806,-0.0789,-0.0758,-0.0744,-0.0719,-0.0693,-0.0682,-0.0668,-0.0642,-0.0625,-0.0603,-0.0583,-0.055,-0.0528,-0.0524,-0.0511,-0.0519,-0.052,-0.0516,-0.0476,-0.0477,-0.053,-0.053,-0.053,-0.053,-0.053,-0.053,-0.0852,-0.0843,-0.0822,-0.0802,-0.0779,-0.0762,-0.0749,-0.073,-0.071,-0.0687,-0.067,-0.0649,-0.062,-0.0596,-0.0577,-0.0568,-0.0561,-0.0574,-0.0561,-0.0525,-0.0519,-0.0513,-0.0513,-0.0572,-0.0572,-0.0601,-0.0601,-0.0602]}]]